Location: LDNL
(36.4545°S, 141.6685°E)
Time: 02:28:15
(UTC+10:00)

Courier 1B Rocket - Pass Details

Date: 31 May 2024
Orbit: 920 x 1201 km, 28.3° (Epoch: 14 June)

Event Time Altitude Azimuth Distance (km) Brightness Sun altitude
Exits shadow 04:50:28 29° 352° (N) 1,990 6.5 -32.6°
Drops below altitude 10° 04:56:13 10° 39° (NE) 3,119 8.1 -31.5°
Sets 04:59:28 0° 49° (NE) 4,091 9.0 -30.8°
